�������l�o���
Date,Time,MP-1(��Sv/h),MP-2(��Sv/h),MP-3(��Sv/h),MP-4(��Sv/h),MP-5(��Sv/h),MP-6(��Sv/h),MP-7(��Sv/h),MP-8(��Sv/h),����,����(m/s),���J
2023/10/09,00:00,0.531,0.810,0.495,1.013,0.729,0.320,0.573,0.533,�k��,4.0,�L
2023/10/09,00:10,0.531,0.810,0.495,1.016,0.728,0.322,0.575,0.533,�k��,4.2,�L
2023/10/09,00:20,0.531,0.810,0.494,1.015,0.726,0.322,0.575,0.536,�k��,4.0,�L
2023/10/09,00:30,0.532,0.809,0.496,1.014,0.727,0.322,0.575,0.533,�k��,3.9,�L
2023/10/09,00:40,0.532,0.811,0.496,1.016,0.727,0.321,0.576,0.533,�k��,4.3,��
2023/10/09,00:50,0.531,0.807,0.493,1.015,0.727,0.321,0.575,0.533,�k��,3.7,�L
2023/10/09,01:00,0.531,0.810,0.495,1.014,0.728,0.321,0.577,0.534,�k��,5.0,�L
2023/10/09,01:10,0.531,0.808,0.495,1.016,0.728,0.321,0.574,0.534,�k��,5.2,��
2023/10/09,01:20,0.533,0.810,0.494,1.016,0.729,0.321,0.576,0.535,�k��,5.7,�L
2023/10/09,01:30,0.531,0.810,0.493,1.015,0.728,0.321,0.576,0.534,�k��,4.7,�L
2023/10/09,01:40,0.532,0.808,0.496,1.018,0.727,0.323,0.574,0.535,�k�k��,5.0,�L
2023/10/09,01:50,0.531,0.808,0.493,1.012,0.725,0.320,0.575,0.534,�k�k��,4.6,�L
2023/10/09,02:00,0.532,0.809,0.495,1.013,0.727,0.321,0.575,0.535,�k�k��,4.1,�L
2023/10/09,02:10,0.529,0.807,0.493,1.015,0.726,0.321,0.574,0.532,�k��,4.1,�L
2023/10/09,02:20,0.535,0.807,0.494,1.016,0.728,0.321,0.575,0.533,�k�k��,4.9,�L
2023/10/09,02:30,0.530,0.808,0.496,1.015,0.725,0.320,0.574,0.534,�k�k��,5.6,�L
2023/10/09,02:40,0.529,0.807,0.493,1.014,0.726,0.321,0.576,0.534,�k�k��,5.5,�L
2023/10/09,02:50,0.530,0.807,0.492,1.014,0.725,0.320,0.573,0.534,�k�k��,5.3,�L
2023/10/09,03:00,0.528,0.807,0.493,1.014,0.726,0.320,0.575,0.533,�k�k��,6.0,�L
2023/10/09,03:10,0.530,0.804,0.495,1.015,0.724,0.320,0.575,0.534,�k��,5.3,�L
2023/10/09,03:20,0.530,0.807,0.493,1.014,0.725,0.321,0.573,0.533,�k��,6.1,�L
2023/10/09,03:30,0.529,0.806,0.493,1.012,0.724,0.320,0.573,0.534,�k��,6.6,�L
2023/10/09,03:40,0.531,0.804,0.492,1.014,0.723,0.321,0.573,0.532,�k��,6.7,�L
2023/10/09,03:50,0.527,0.804,0.493,1.013,0.724,0.321,0.571,0.533,�k�k��,7.1,�L
2023/10/09,04:00,0.528,0.802,0.490,1.011,0.722,0.320,0.569,0.532,�k�k��,7.1,�L
2023/10/09,04:10,0.525,0.799,0.491,1.013,0.721,0.321,0.571,0.532,�k��,6.2,�L
2023/10/09,04:20,0.527,0.797,0.492,1.011,0.717,0.321,0.571,0.531,�k�k��,6.6,�L
2023/10/09,04:30,0.523,0.796,0.491,1.012,0.715,0.320,0.570,0.531,�k�k��,6.2,�L
2023/10/09,04:40,0.525,0.796,0.490,1.009,0.716,0.320,0.571,0.530,�k�k��,7.1,�L
2023/10/09,04:50,0.523,0.795,0.489,1.007,0.714,0.320,0.570,0.529,�k�k��,6.4,�L
2023/10/09,05:00,0.522,0.797,0.490,1.007,0.716,0.321,0.570,0.529,�k�k��,6.6,�L
2023/10/09,05:10,0.523,0.793,0.488,1.009,0.714,0.319,0.570,0.530,�k�k��,5.8,�L
2023/10/09,05:20,0.523,0.791,0.488,1.006,0.711,0.320,0.569,0.530,�k�k��,6.6,�L
2023/10/09,05:30,0.521,0.791,0.487,1.008,0.712,0.319,0.569,0.530,�k�k��,5.5,�L
2023/10/09,05:40,0.521,0.790,0.488,1.005,0.712,0.319,0.567,0.531,�k�k��,6.0,�L
2023/10/09,05:50,0.518,0.784,0.485,1.005,0.707,0.319,0.567,0.529,�k�k��,6.4,�L
2023/10/09,06:00,0.519,0.787,0.486,1.000,0.707,0.319,0.567,0.529,�k�k��,6.6,�L
2023/10/09,06:10,0.516,0.782,0.484,0.997,0.703,0.318,0.565,0.527,�k�k��,6.1,�L
2023/10/09,06:20,0.515,0.780,0.485,0.993,0.701,0.317,0.565,0.527,�k�k��,6.0,�L
2023/10/09,06:30,0.515,0.779,0.483,0.992,0.699,0.315,0.566,0.527,�k�k��,5.1,�L
2023/10/09,06:40,0.515,0.780,0.485,0.990,0.701,0.317,0.566,0.526,�k�k��,4.4,�L
2023/10/09,06:50,0.515,0.778,0.484,0.991,0.701,0.315,0.565,0.527,�k�k��,4.9,�L
2023/10/09,07:00,0.515,0.775,0.483,0.990,0.700,0.317,0.566,0.525,�k�k��,5.3,�L
2023/10/09,07:10,0.513,0.771,0.481,0.986,0.697,0.317,0.563,0.526,�k�k��,5.6,�L
2023/10/09,07:20,0.511,0.773,0.481,0.982,0.693,0.316,0.563,0.526,�k�k��,5.9,�L
2023/10/09,07:30,0.511,0.770,0.480,0.982,0.694,0.315,0.561,0.525,�k�k��,6.5,�L
2023/10/09,07:40,0.511,0.770,0.482,0.978,0.694,0.315,0.562,0.523,�k�k��,7.3,�L
2023/10/09,07:50,0.510,0.765,0.480,0.976,0.691,0.314,0.560,0.523,�k�k��,7.0,�L
2023/10/09,08:00,0.505,0.764,0.478,0.972,0.687,0.314,0.561,0.522,�k�k��,6.8,�L
2023/10/09,08:10,0.507,0.764,0.478,0.967,0.688,0.313,0.561,0.522,�k�k��,5.7,�L
2023/10/09,08:20,0.506,0.764,0.479,0.968,0.687,0.312,0.559,0.521,�k�k��,5.6,�L
2023/10/09,08:30,0.506,0.765,0.479,0.965,0.687,0.314,0.560,0.523,�k,6.1,�L
2023/10/09,08:40,0.507,0.764,0.476,0.965,0.686,0.313,0.559,0.521,�k�k��,5.4,�L
2023/10/09,08:50,0.504,0.764,0.478,0.962,0.685,0.315,0.558,0.521,�k�k��,5.7,�L
2023/10/09,09:00,0.504,0.761,0.476,0.961,0.681,0.313,0.557,0.521,�k�k��,5.1,�L
2023/10/09,09:10,0.503,0.757,0.476,0.958,0.683,0.311,0.557,0.519,�k�k��,5.2,�L
2023/10/09,09:20,0.501,0.759,0.475,0.955,0.680,0.310,0.557,0.519,�k�k��,6.1,�L
2023/10/09,09:30,0.501,0.756,0.475,0.957,0.681,0.311,0.556,0.520,�k�k��,5.1,�L
2023/10/09,09:40,0.502,0.758,0.476,0.954,0.680,0.311,0.556,0.518,�k�k��,5.2,�L
2023/10/09,09:50,0.502,0.756,0.476,0.956,0.681,0.312,0.554,0.518,�k�k��,5.2,�L
2023/10/09,10:00,0.500,0.758,0.475,0.954,0.675,0.312,0.556,0.517,�k�k��,4.9,�L
2023/10/09,10:10,0.502,0.758,0.475,0.957,0.674,0.313,0.555,0.518,�k�k��,5.0,�L
2023/10/09,10:20,0.503,0.758,0.476,0.954,0.679,0.312,0.556,0.520,�k�k��,4.2,�L
2023/10/09,10:30,0.501,0.758,0.473,0.954,0.680,0.312,0.554,0.518,�k�k��,2.3,�L
2023/10/09,10:40,0.500,0.759,0.475,0.956,0.676,0.311,0.556,0.518,�k�k��,3.2,�L
2023/10/09,10:50,0.503,0.759,0.473,0.955,0.676,0.313,0.555,0.519,�k�k��,3.2,�L
2023/10/09,11:00,0.502,0.760,0.475,0.952,0.683,0.310,0.557,0.519,�k��,4.1,�L
2023/10/09,11:10,0.502,0.757,0.473,0.953,0.682,0.311,0.556,0.518,�k�k��,4.2,�L
2023/10/09,11:20,0.502,0.757,0.475,0.952,0.681,0.313,0.557,0.519,�k��,4.2,�L
2023/10/09,11:30,0.503,0.759,0.475,0.954,0.681,0.310,0.555,0.520,�k��,4.2,�L
2023/10/09,11:40,0.501,0.759,0.477,0.955,0.682,0.313,0.555,0.519,�k��,4.4,�L
2023/10/09,11:50,0.502,0.760,0.475,0.954,0.681,0.311,0.555,0.520,�k��,4.1,�L
2023/10/09,12:00,0.501,0.758,0.474,0.953,0.681,0.311,0.555,0.517,�k�k��,3.3,�L
2023/10/09,12:10,0.501,0.758,0.473,0.952,0.679,0.312,0.557,0.520,�k��,3.7,�L
2023/10/09,12:20,0.501,0.759,0.474,0.952,0.680,0.311,0.556,0.519,�k��,3.9,�L
2023/10/09,12:30,0.500,0.757,0.474,0.951,0.678,0.310,0.555,0.518,�k��,4.9,�L
2023/10/09,12:40,0.501,0.757,0.473,0.951,0.675,0.312,0.555,0.519,�k�k��,4.5,�L
2023/10/09,12:50,0.501,0.757,0.472,0.949,0.677,0.309,0.555,0.518,�k��,3.8,�L
2023/10/09,13:00,0.500,0.755,0.472,0.949,0.674,0.311,0.554,0.516,�k��,3.5,�L
2023/10/09,13:10,0.501,0.754,0.473,0.948,0.678,0.311,0.556,0.517,�k�k��,4.2,�L
2023/10/09,13:20,0.500,0.756,0.473,0.949,0.677,0.310,0.555,0.518,�k�k��,2.8,�L
2023/10/09,13:30,0.499,0.753,0.471,0.948,0.676,0.311,0.553,0.519,�k��,3.6,�L
2023/10/09,13:40,0.499,0.752,0.472,0.946,0.674,0.311,0.552,0.517,�k��,2.6,�L
2023/10/09,13:50,0.496,0.752,0.471,0.944,0.672,0.310,0.552,0.516,�k��,3.1,�L
2023/10/09,14:00,0.498,0.752,0.470,0.945,0.672,0.311,0.552,0.517,�k��,2.9,�L
2023/10/09,14:10,0.499,0.752,0.471,0.944,0.675,0.310,0.553,0.516,�k�k��,3.6,�L
2023/10/09,14:20,0.499,0.754,0.471,0.946,0.676,0.311,0.554,0.518,�k�k��,2.8,�L
2023/10/09,14:30,0.499,0.756,0.473,0.947,0.675,0.310,0.554,0.519,�k�k��,3.3,�L
2023/10/09,14:40,0.499,0.755,0.472,0.949,0.677,0.310,0.553,0.518,�k�k��,3.0,�L
2023/10/09,14:50,0.501,0.757,0.472,0.949,0.676,0.310,0.553,0.518,�k�k��,2.6,�L
2023/10/09,15:00,0.501,0.758,0.474,0.951,0.679,0.312,0.554,0.518,�k��,1.7,�L
2023/10/09,15:10,0.501,0.758,0.473,0.950,0.679,0.312,0.554,0.518,�k��,2.3,�L
2023/10/09,15:20,0.502,0.759,0.472,0.949,0.679,0.311,0.554,0.518,�k��,1.7,�L
2023/10/09,15:30,0.502,0.760,0.472,0.949,0.680,0.310,0.553,0.518,�k��,2.0,�L
2023/10/09,15:40,0.501,0.759,0.472,0.950,0.679,0.311,0.554,0.517,�k��,1.7,�L
2023/10/09,15:50,0.499,0.758,0.472,0.947,0.677,0.311,0.554,0.518,�k��,2.3,�L
2023/10/09,16:00,0.499,0.754,0.472,0.948,0.677,0.310,0.555,0.517,�k��,1.5,�L
2023/10/09,16:10,0.499,0.755,0.471,0.946,0.673,0.309,0.552,0.518,�k��,2.0,�L
2023/10/09,16:20,0.498,0.753,0.471,0.947,0.674,0.310,0.552,0.516,�k��,1.9,�L
2023/10/09,16:30,0.499,0.754,0.473,0.948,0.674,0.312,0.553,0.517,�k��,1.9,�L
2023/10/09,16:40,0.499,0.753,0.471,0.945,0.674,0.311,0.553,0.516,�k��,2.0,�L
2023/10/09,16:50,0.496,0.750,0.470,0.943,0.670,0.310,0.552,0.515,�k��,2.6,�L
2023/10/09,17:00,0.496,0.752,0.471,0.943,0.671,0.310,0.552,0.516,�k��,2.0,�L
2023/10/09,17:10,0.496,0.751,0.471,0.943,0.673,0.310,0.552,0.516,�k��,2.5,�L
2023/10/09,17:20,0.499,0.752,0.471,0.944,0.674,0.310,0.551,0.516,���k��,2.3,�L
2023/10/09,17:30,0.499,0.754,0.472,0.943,0.674,0.311,0.552,0.516,���k��,1.7,��
2023/10/09,17:40,0.498,0.755,0.471,0.945,0.673,0.311,0.552,0.517,��,1.9,�L
2023/10/09,17:50,0.498,0.757,0.472,0.946,0.675,0.312,0.551,0.517,���k��,2.6,��
2023/10/09,18:00,0.499,0.758,0.471,0.946,0.675,0.311,0.553,0.518,���k��,1.7,�L
2023/10/09,18:10,0.500,0.759,0.470,0.945,0.676,0.310,0.553,0.518,���k��,2.8,�L
2023/10/09,18:20,0.501,0.758,0.471,0.946,0.677,0.311,0.552,0.519,��,2.3,�L
2023/10/09,18:30,0.502,0.757,0.472,0.947,0.679,0.311,0.551,0.519,���k��,2.0,�L
2023/10/09,18:40,0.500,0.755,0.471,0.945,0.677,0.312,0.551,0.518,���k��,2.5,�L
2023/10/09,18:50,0.499,0.756,0.471,0.945,0.677,0.310,0.552,0.517,���k��,3.5,�L
2023/10/09,19:00,0.500,0.754,0.471,0.945,0.674,0.312,0.552,0.517,���k��,2.0,�L
2023/10/09,19:10,0.498,0.756,0.472,0.945,0.674,0.313,0.553,0.517,�k��,2.0,�L
2023/10/09,19:20,0.498,0.759,0.472,0.945,0.675,0.310,0.552,0.518,�k��,2.5,�L
2023/10/09,19:30,0.499,0.756,0.471,0.946,0.675,0.312,0.551,0.517,�k�k��,2.8,�L
2023/10/09,19:40,0.498,0.757,0.470,0.943,0.676,0.310,0.552,0.518,�k�k��,3.2,�L
2023/10/09,19:50,0.499,0.757,0.471,0.944,0.674,0.312,0.551,0.518,�k,2.9,��
2023/10/09,20:00,0.500,0.757,0.471,0.944,0.674,0.311,0.553,0.519,�k�k��,3.1,��
2023/10/09,20:10,0.498,0.757,0.471,0.946,0.676,0.312,0.553,0.517,�k�k��,3.9,�L
2023/10/09,20:20,0.498,0.756,0.471,0.944,0.676,0.311,0.553,0.516,�k�k��,3.5,�L
2023/10/09,20:30,0.499,0.757,0.471,0.946,0.675,0.311,0.552,0.518,�k,4.9,�L
2023/10/09,20:40,0.500,0.757,0.470,0.946,0.678,0.311,0.554,0.518,�k,4.5,�L
2023/10/09,20:50,0.499,0.758,0.470,0.943,0.676,0.311,0.552,0.516,�k,4.8,�L
2023/10/09,21:00,0.498,0.756,0.471,0.945,0.677,0.311,0.553,0.518,�k�k��,6.1,��
2023/10/09,21:10,0.497,0.756,0.471,0.947,0.675,0.310,0.555,0.516,�k�k��,5.6,�L
2023/10/09,21:20,0.499,0.756,0.472,0.946,0.676,0.311,0.553,0.518,�k��,4.7,�L
2023/10/09,21:30,0.498,0.753,0.470,0.943,0.675,0.311,0.553,0.517,�k�k��,5.4,�L
2023/10/09,21:40,0.496,0.753,0.470,0.942,0.674,0.310,0.552,0.517,�k��,5.7,�L
2023/10/09,21:50,0.493,0.748,0.469,0.937,0.671,0.312,0.552,0.517,�k�k��,5.5,�L
2023/10/09,22:00,0.494,0.750,0.470,0.940,0.672,0.310,0.554,0.516,�k��,6.8,�L
2023/10/09,22:10,0.495,0.750,0.468,0.940,0.672,0.310,0.552,0.516,�k��,6.5,�L
2023/10/09,22:20,0.495,0.747,0.470,0.941,0.672,0.310,0.553,0.517,�k�k��,6.8,�L
2023/10/09,22:30,0.496,0.750,0.469,0.940,0.675,0.310,0.552,0.516,�k�k��,6.5,�L
2023/10/09,22:40,0.497,0.752,0.471,0.941,0.673,0.311,0.554,0.517,�k�k��,5.7,�L
2023/10/09,22:50,0.497,0.751,0.470,0.941,0.672,0.309,0.553,0.516,�k�k��,6.5,�L
2023/10/09,23:00,0.497,0.750,0.470,0.941,0.672,0.309,0.553,0.517,�k�k��,7.8,�L
2023/10/09,23:10,0.497,0.753,0.471,0.942,0.671,0.310,0.553,0.518,�k�k��,6.8,�L
2023/10/09,23:20,0.496,0.751,0.470,0.940,0.672,0.310,0.553,0.516,�k�k��,7.2,�L
2023/10/09,23:30,0.494,0.748,0.468,0.941,0.672,0.311,0.552,0.517,�k�k��,7.5,�L
2023/10/09,23:40,0.495,0.747,0.469,0.940,0.670,0.310,0.551,0.515,�k�k��,7.7,�L
2023/10/09,23:50,0.493,0.747,0.469,0.941,0.671,0.310,0.553,0.516,�k�k��,8.0,�L
